User: anonymous   Login
Location: Unspecified
(0.0000°N, 0.0000°E)
Time: 02:07:10
(UTC+00:00)
Language:

ETS 8 - Orbit

View from above orbital plane
View from above orbital plane
View from above satellite
View from above satellite

Ground track
Ground track

The orbit data is extracted from the following two-line orbital elements,

1 29656U 06059A   18016.36070464 -.00000211 +00000-0 +00000-0 0  9999
2 29656 005.9736 058.0898 0010778 224.6846 135.2229 00.99009482040608
Epoch (UTC): 16 January 2018 08:39:24
Eccentricity: 0.0010778
inclination: 5.9736°
perigee height: 36098 km
apogee height: 36189 km
right ascension of ascending node: 58.0898°
argument of perigee: 224.6846°
revolutions per day: 0.99009482
mean anomaly at epoch: 135.2229°
orbit number at epoch: 4060

The dashed part of the orbit path shows where the satellite is in the earth's shadow,  

DLR